GW0416 Weather Reports


Display with metric or nautical units.
time (UTC)temp
F
wind
direction
speed
MPH
gust
MPH
rain 1hr
in
rain 24hr
in
rain mn
in
humidity
%
barometer
mb
20260905154535 60 348 8.0 11.0 0.00 0.00 0.00 74 1020.0
20260905153036 59 344 8.0 15.0 0.00 0.00 0.00 77 1020.1
20260905151535 57 336 8.0 13.0 0.00 0.00 0.00 84 1019.8
20260905150035 55 346 4.0 10.0 0.00 0.00 0.00 85 1020.0
20260905144536 54 346 6.0 10.0 0.00 0.00 0.00 87 1020.1
20260905143036 53 319 6.0 14.0 0.00 0.00 0.00 87 1020.2
20260905141536 53 360 9.0 17.0 0.00 0.00 0.00 86 1019.6
20260905140036 52 295 10.0 19.0 0.00 0.00 0.00 84 1019.5
20260905134535 52 269 11.0 18.0 0.00 0.00 0.00 78 1020.8
20260905133038 54 248 9.0 16.0 0.00 0.00 0.00 76 1020.8
20260905131534 52 288 6.0 9.0 0.00 0.00 0.00 79 1019.2
20260905130034 51 284 9.0 11.0 0.00 0.00 0.00 79 1018.5
20260905124536 51 360 7.0 10.0 0.00 0.00 0.00 78 1018.7
20260905123035 52 292 2.0 5.0 0.00 0.00 0.00 76 1019.3
20260905121534 53 258 6.0 12.0 0.00 0.00 0.00 75 1019.6
20260905120036 52 270 9.0 14.0 0.00 0.00 0.00 74 1019.3
20260905114537 52 259 9.0 13.0 0.00 0.00 0.00 73 1018.9
20260905113038 53 280 7.0 12.0 0.00 0.00 0.00 72 1018.6
20260905111535 53 254 7.0 10.0 0.00 0.00 0.00 72 1018.5
20260905110037 52 259 6.0 10.0 0.00 0.00 0.00 73 1018.4
20260905104540 50 304 4.0 8.0 0.00 0.00 0.00 76 1017.6
20260905103036 50 292 4.0 9.0 0.00 0.00 0.00 75 1017.8
20260905101540 51 292 7.0 9.0 0.00 0.00 0.00 72 1017.8
20260905100108 52 288 8.0 11.0 0.00 0.00 0.00 71 1017.6
20260905094545 54 319 3.0 8.0 0.00 0.00 0.00 68 1017.7
20260905093036 55 330 2.0 5.0 0.00 0.00 0.00 65 1017.8
20260905091545 56 12 4.0 6.0 0.00 0.00 0.00 64 1017.3
20260905090035 56 0 0.0 4.0 0.00 0.00 0.00 66 1017.2
20260905084542 54 317 2.0 4.0 0.00 0.00 0.00 69 1017.1
20260905083044 54 32 4.0 8.0 0.00 0.00 0.00 69 1016.6
20260905081538 56 360 7.0 10.0 0.00 0.00 0.00 64 1016.5
20260905080033 56 305 5.0 8.0 0.00 0.00 0.00 64 1017.3
20260905074533 56 306 5.0 10.0 0.00 0.00 0.00 63 1017.6
20260905073039 54 258 4.0 10.0 0.00 0.00 0.00 65 1017.7
20260905071540 55 275 5.0 7.0 0.00 0.00 0.00 63 1017.7
20260905070036 56 342 5.0 8.0 0.00 0.00 0.00 62 1017.3
20260905064534 55 325 4.0 7.0 0.00 0.00 0.00 65 1017.4
20260905063036 54 294 3.0 6.0 0.00 0.00 0.00 67 1017.3
20260905061537 55 275 2.0 5.0 0.00 0.00 0.00 63 1017.3
20260905060043 55 309 4.0 7.0 0.00 0.00 0.00 64 1017.0
20260905054601 55 312 3.0 5.0 0.00 0.00 0.00 64 1016.6
20260905053033 55 15 5.0 9.0 0.00 0.00 0.00 61 1016.5
20260905051539 56 36 5.0 6.0 0.00 0.00 0.00 60 1016.7
20260905050036 56 346 2.0 6.0 0.00 0.00 0.00 59 1017.1
20260905044535 57 18 5.0 7.0 0.00 0.00 0.00 59 1016.5
20260905043038 57 20 3.0 5.0 0.00 0.00 0.00 59 1016.5
20260905041539 58 39 0.0 3.0 0.00 0.00 0.00 56 1017.0
20260905040040 58 39 3.0 8.0 0.00 0.00 0.00 56 1016.5
20260905034537 59 37 6.0 11.0 0.00 0.00 0.00 54 1015.6
20260905033040 61 22 9.0 14.0 0.00 0.00 0.00 51 1015.4
20260905031538 62 5 10.0 14.0 0.00 0.00 0.00 49 1015.5
20260905030038 62 5 10.0 14.0 0.00 0.00 0.00 48 1015.5
20260905024538 62 15 9.0 12.0 0.00 0.00 0.00 48 1015.2
20260905023036 63 350 9.0 13.0 0.00 0.00 0.00 46 1014.8
20260905021537 64 318 9.0 19.0 0.00 0.00 0.00 45 1014.8
20260905020038 64 346 14.0 22.0 0.00 0.00 0.00 44 1013.9
20260905014536 64 9 15.0 20.0 0.00 0.00 0.00 44 1013.4
20260905013039 65 22 14.0 21.0 0.00 0.00 0.00 43 1013.6
20260905011535 66 13 17.0 25.0 0.00 0.00 0.00 41 1013.2
20260905010040 67 360 21.0 27.0 0.00 0.00 0.00 40 1013.0
20260905004538 67 14 22.0 28.0 0.00 0.00 0.00 39 1013.0
20260905003036 67 11 20.0 25.0 0.00 0.00 0.00 39 1013.2
20260905001538 67 5 19.0 24.0 0.00 0.00 0.00 40 1013.3
20260905000036 68 5 17.0 22.0 0.00 0.00 0.00 39 1013.3
20260904234536 68 344 14.0 21.0 0.00 0.00 0.00 39 1013.4
20260904233037 69 342 9.0 20.0 0.00 0.00 0.00 38 1013.6
20260904231550 70 309 12.0 17.0 0.00 0.00 0.00 37 1013.3
20260904230037 70 18 11.0 22.0 0.00 0.00 0.00 36 1013.3
20260904224534 71 328 14.0 24.0 0.00 0.00 0.00 36 1013.0
20260904223034 73 292 13.0 21.0 0.00 0.00 0.00 36 1012.9
20260904221542 73 292 12.0 20.0 0.00 0.00 0.00 36 1012.7
20260904220036 72 290 14.0 23.0 0.00 0.00 0.00 37 1012.5
20260904214534 72 293 16.0 24.0 0.00 0.00 0.00 36 1012.4
20260904213038 73 292 17.0 25.0 0.00 0.00 0.00 36 1012.1
20260904211534 73 290 15.0 21.0 0.00 0.00 0.00 37 1011.7
20260904210037 72 292 17.0 29.0 0.00 0.00 0.00 36 1011.6
20260904204537 72 306 17.0 24.0 0.00 0.00 0.00 35 1011.4
20260904203049 73 293 14.0 19.0 0.00 0.00 0.00 35 1011.4
20260904201535 71 281 15.0 23.0 0.00 0.00 0.00 36 1011.0
20260904200056 72 306 9.0 18.0 0.00 0.00 0.00 37 1011.0
20260904194534 70 271 10.0 15.0 0.00 0.00 0.00 39 1010.9
20260904193037 69 277 10.0 17.0 0.00 0.00 0.00 41 1010.6
20260904191537 68 284 9.0 15.0 0.00 0.00 0.00 42 1010.3
20260904190038 67 262 7.0 13.0 0.00 0.00 0.00 43 1010.3
20260904184537 67 274 10.0 17.0 0.00 0.00 0.00 43 1010.2
20260904183041 66 277 9.0 14.0 0.00 0.00 0.00 44 1010.1
20260904181540 66 234 9.0 17.0 0.00 0.00 0.00 44 1009.9
20260904180042 66 246 9.0 16.0 0.00 0.00 0.00 43 1010.0
20260904174536 66 228 9.0 12.0 0.00 0.00 0.00 44 1010.0
20260904173053 65 254 4.0 8.0 0.00 0.00 0.00 45 1009.6
20260904171538 64 224 7.0 11.0 0.00 0.00 0.00 45 1009.7
20260904170038 63 244 8.0 14.0 0.00 0.00 0.00 47 1009.6
20260904164534 62 250 9.0 16.0 0.00 0.00 0.00 47 1009.6
20260904163035 63 227 11.0 16.0 0.00 0.00 0.00 46 1009.4
20260904161535 63 302 5.0 10.0 0.00 0.00 0.00 53 1009.1
20260904160045 62 289 4.0 7.0 0.00 0.00 0.00 52 1009.0